Time,TemperatureF,DewpointF,PressureIn,WindDirection,WindDirectionDegrees,WindSpeedMPH,WindSpeedGustMPH,Humidity,HourlyPrecipIn,Conditions,Clouds,dailyrainin,SoftwareType,DateUTC
2013-01-01 00:00:00,53.2,49.1,30.12,West,271,0.0,1.0,86,0.00,,,0.00,Wunderground v.1.15,2013-01-01 05:00:00,
2013-01-01 00:10:00,53.2,49.1,30.12,West,259,1.0,1.0,86,0.00,,,0.00,Wunderground v.1.15,2013-01-01 05:10:00,
2013-01-01 00:20:00,53.3,49.2,30.11,SW,215,1.0,1.0,86,0.00,,,0.00,Wunderground v.1.15,2013-01-01 05:20:00,
2013-01-01 00:30:00,53.3,48.9,30.11,West,267,1.0,1.0,85,0.00,,,0.00,Wunderground v.1.15,2013-01-01 05:30:00,
2013-01-01 00:40:00,53.2,48.8,30.11,WSW,252,1.0,1.0,85,0.00,,,0.00,Wunderground v.1.15,2013-01-01 05:40:00,
2013-01-01 00:50:00,53.1,48.7,30.11,WSW,250,1.0,2.0,85,0.00,,,0.00,Wunderground v.1.15,2013-01-01 05:50:00,
2013-01-01 01:00:00,53.0,48.6,30.11,West,269,1.0,1.0,85,0.00,,,0.00,Wunderground v.1.15,2013-01-01 06:00:00,
2013-01-01 01:10:00,52.7,48.0,30.11,West,264,1.0,1.0,84,0.00,,,0.00,Wunderground v.1.15,2013-01-01 06:10:00,
2013-01-01 01:20:00,52.3,47.9,30.09,West,265,1.0,1.0,85,0.00,,,0.00,Wunderground v.1.15,2013-01-01 06:20:00,
2013-01-01 01:30:00,52.0,47.6,30.09,West,265,1.0,1.0,85,0.00,,,0.00,Wunderground v.1.15,2013-01-01 06:30:00,
2013-01-01 01:40:00,51.6,47.5,30.09,West,269,0.0,0.0,86,0.00,,,0.00,Wunderground v.1.15,2013-01-01 06:40:00,
2013-01-01 01:50:00,51.2,47.2,30.09,WSW,253,0.0,0.0,86,0.00,,,0.00,Wunderground v.1.15,2013-01-01 06:50:00,
2013-01-01 02:00:00,50.8,47.1,30.08,WSW,254,0.0,0.0,87,0.00,,,0.00,Wunderground v.1.15,2013-01-01 07:00:00,
2013-01-01 02:10:00,50.6,46.9,30.08,WSW,255,0.0,0.0,87,0.00,,,0.00,Wunderground v.1.15,2013-01-01 07:10:00,
2013-01-01 02:20:00,50.6,47.2,30.08,West,268,0.0,0.0,88,0.00,,,0.00,Wunderground v.1.15,2013-01-01 07:20:00,
2013-01-01 02:30:00,50.6,47.2,30.08,West,268,0.0,0.0,88,0.00,,,0.00,Wunderground v.1.15,2013-01-01 07:30:00,
2013-01-01 02:40:00,50.6,47.2,30.08,West,267,0.0,0.0,88,0.00,,,0.00,Wunderground v.1.15,2013-01-01 07:40:00,
2013-01-01 02:50:00,50.7,47.3,30.08,WSW,256,0.0,0.0,88,0.00,,,0.00,Wunderground v.1.15,2013-01-01 07:50:00,
2013-01-01 03:00:00,50.9,47.5,30.06,SSW,199,0.0,0.0,88,0.00,,,0.00,Wunderground v.1.15,2013-01-01 08:00:00,
2013-01-01 03:10:00,51.0,47.3,30.06,West,265,0.0,0.0,87,0.00,,,0.00,Wunderground v.1.15,2013-01-01 08:10:00,
2013-01-01 03:20:00,51.1,47.4,30.08,WSW,256,0.0,1.0,87,0.00,,,0.00,Wunderground v.1.15,2013-01-01 08:20:00,
2013-01-01 03:30:00,51.2,47.5,30.07,West,269,1.0,1.0,87,0.00,,,0.00,Wunderground v.1.15,2013-01-01 08:30:00,
2013-01-01 03:40:00,51.4,47.7,30.07,West,271,0.0,0.0,87,0.00,,,0.00,Wunderground v.1.15,2013-01-01 08:40:00,
2013-01-01 03:50:00,51.3,47.3,30.06,WSW,252,0.0,0.0,86,0.00,,,0.00,Wunderground v.1.15,2013-01-01 08:50:00,
2013-01-01 04:00:00,51.2,47.5,30.05,WSW,254,0.0,0.0,87,0.00,,,0.00,Wunderground v.1.15,2013-01-01 09:00:00,
2013-01-01 04:10:00,51.2,47.5,30.05,WNW,296,0.0,0.0,87,0.00,,,0.00,Wunderground v.1.15,2013-01-01 09:10:00,
2013-01-01 04:20:00,51.0,47.3,30.06,WNW,298,0.0,0.0,87,0.00,,,0.00,Wunderground v.1.15,2013-01-01 09:20:00,
2013-01-01 04:30:00,51.0,47.3,30.07,WNW,298,0.0,0.0,87,0.00,,,0.00,Wunderground v.1.15,2013-01-01 09:30:00,
2013-01-01 04:40:00,50.9,47.2,30.07,WNW,298,0.0,0.0,87,0.00,,,0.00,Wunderground v.1.15,2013-01-01 09:40:00,
2013-01-01 04:50:00,50.9,47.2,30.06,WNW,296,0.0,0.0,87,0.00,,,0.00,Wunderground v.1.15,2013-01-01 09:50:00,
2013-01-01 05:00:00,50.9,47.2,30.06,SSW,194,0.0,0.0,87,0.00,,,0.00,Wunderground v.1.15,2013-01-01 10:00:00,
2013-01-01 05:10:00,50.9,47.2,30.06,SSW,199,0.0,2.0,87,0.00,,,0.00,Wunderground v.1.15,2013-01-01 10:10:00,
2013-01-01 05:20:00,50.9,47.2,30.05,SSW,206,2.0,2.0,87,0.00,,,0.00,Wunderground v.1.15,2013-01-01 10:20:00,
2013-01-01 05:30:00,50.8,47.1,30.05,SW,225,0.0,0.0,87,0.00,,,0.00,Wunderground v.1.15,2013-01-01 10:30:00,
2013-01-01 05:40:00,50.7,47.0,30.05,SW,225,0.0,0.0,87,0.00,,,0.00,Wunderground v.1.15,2013-01-01 10:40:00,
2013-01-01 05:50:00,50.5,46.8,30.05,SW,225,0.0,0.0,87,0.00,,,0.00,Wunderground v.1.15,2013-01-01 10:50:00,
2013-01-01 06:00:00,50.5,47.1,30.06,SW,225,0.0,0.0,88,0.00,,,0.00,Wunderground v.1.15,2013-01-01 11:00:00,
2013-01-01 06:10:00,50.8,47.4,30.06,SW,225,0.0,0.0,88,0.00,,,0.00,Wunderground v.1.15,2013-01-01 11:10:00,
2013-01-01 06:20:00,50.9,47.5,30.06,SSW,205,0.0,0.0,88,0.00,,,0.00,Wunderground v.1.15,2013-01-01 11:20:00,
2013-01-01 06:30:00,50.9,47.5,30.06,SSW,205,0.0,0.0,88,0.00,,,0.00,Wunderground v.1.15,2013-01-01 11:30:00,
2013-01-01 06:40:00,51.0,47.6,30.06,SSW,203,0.0,0.0,88,0.00,,,0.00,Wunderground v.1.15,2013-01-01 11:40:00,
2013-01-01 06:50:00,51.3,47.9,30.06,SSW,210,0.0,0.0,88,0.00,,,0.00,Wunderground v.1.15,2013-01-01 11:50:00,
2013-01-01 07:00:00,51.5,48.1,30.06,WSW,256,0.0,0.0,88,0.00,,,0.00,Wunderground v.1.15,2013-01-01 12:00:00,
2013-01-01 07:10:00,51.7,48.3,30.06,WSW,257,0.0,0.0,88,0.00,,,0.00,Wunderground v.1.15,2013-01-01 12:10:00,
2013-01-01 07:20:00,52.1,48.3,30.07,West,267,0.0,0.0,87,0.00,,,0.00,Wunderground v.1.15,2013-01-01 12:20:00,
2013-01-01 07:30:00,52.4,48.6,30.07,WSW,256,0.0,0.0,87,0.00,,,0.00,Wunderground v.1.15,2013-01-01 12:30:00,
2013-01-01 07:40:00,52.7,48.6,30.07,West,259,0.0,0.0,86,0.00,,,0.00,Wunderground v.1.15,2013-01-01 12:40:00,
2013-01-01 07:50:00,53.0,48.9,30.06,West,263,0.0,1.0,86,0.00,,,0.00,Wunderground v.1.15,2013-01-01 12:50:00,
2013-01-01 08:00:00,53.1,48.7,30.07,West,267,0.0,0.0,85,0.00,,,0.00,Wunderground v.1.15,2013-01-01 13:00:00,
2013-01-01 08:10:00,53.2,48.8,30.07,West,265,0.0,1.0,85,0.00,,,0.00,Wunderground v.1.15,2013-01-01 13:10:00,
2013-01-01 08:20:00,53.3,48.9,30.08,West,275,1.0,1.0,85,0.00,,,0.00,Wunderground v.1.15,2013-01-01 13:20:00,
2013-01-01 08:30:00,53.4,49.0,30.08,West,269,0.0,1.0,85,0.00,,,0.00,Wunderground v.1.15,2013-01-01 13:30:00,
2013-01-01 08:40:00,53.4,49.0,30.08,West,267,0.0,0.0,85,0.00,,,0.00,Wunderground v.1.15,2013-01-01 13:40:00,
2013-01-01 08:50:00,53.4,49.0,30.08,WSW,254,0.0,0.0,85,0.00,,,0.00,Wunderground v.1.15,2013-01-01 13:50:00,
2013-01-01 09:00:00,53.5,48.8,30.08,West,269,0.0,0.0,84,0.00,,,0.00,Wunderground v.1.15,2013-01-01 14:00:00,
2013-01-01 09:10:00,53.7,49.0,30.08,West,276,0.0,0.0,84,0.00,,,0.00,Wunderground v.1.15,2013-01-01 14:10:00,
2013-01-01 09:20:00,53.9,48.9,30.09,SW,223,0.0,0.0,83,0.00,,,0.00,Wunderground v.1.15,2013-01-01 14:20:00,
2013-01-01 09:30:00,54.2,49.1,30.09,West,261,1.0,1.0,83,0.00,,,0.00,Wunderground v.1.15,2013-01-01 14:30:00,
2013-01-01 09:40:00,54.6,49.2,30.09,West,267,1.0,1.0,82,0.00,,,0.00,Wunderground v.1.15,2013-01-01 14:40:00,
2013-01-01 09:50:00,54.9,48.8,30.09,WSW,253,0.0,3.0,80,0.00,,,0.00,Wunderground v.1.15,2013-01-01 14:50:00,
2013-01-01 10:00:00,55.2,49.1,30.09,WSW,257,1.0,1.0,80,0.00,,,0.00,Wunderground v.1.15,2013-01-01 15:00:00,
2013-01-01 10:10:00,55.4,49.0,30.09,West,268,1.0,1.0,79,0.00,,,0.00,Wunderground v.1.15,2013-01-01 15:10:00,
2013-01-01 10:20:00,55.6,48.8,30.09,West,267,1.0,1.0,78,0.00,,,0.00,Wunderground v.1.15,2013-01-01 15:20:00,
2013-01-01 10:30:00,56.0,49.2,30.09,West,261,0.0,0.0,78,0.00,,,0.00,Wunderground v.1.15,2013-01-01 15:30:00,
2013-01-01 10:40:00,56.3,49.2,30.09,West,269,0.0,0.0,77,0.00,,,0.00,Wunderground v.1.15,2013-01-01 15:40:00,
2013-01-01 10:50:00,56.4,48.9,30.09,West,264,0.0,1.0,76,0.00,,,0.00,Wunderground v.1.15,2013-01-01 15:50:00,
2013-01-01 11:00:00,56.7,48.9,30.09,West,264,0.0,0.0,75,0.00,,,0.00,Wunderground v.1.15,2013-01-01 16:00:00,
2013-01-01 11:10:00,57.1,48.9,30.09,West,259,0.0,1.0,74,0.00,,,0.00,Wunderground v.1.15,2013-01-01 16:10:00,
2013-01-01 11:20:00,57.4,48.8,30.08,WSW,256,1.0,1.0,73,0.00,,,0.00,Wunderground v.1.15,2013-01-01 16:20:00,
2013-01-01 11:30:00,57.8,48.8,30.07,SW,215,1.0,1.0,72,0.00,,,0.00,Wunderground v.1.15,2013-01-01 16:30:00,
2013-01-01 11:40:00,57.9,48.6,30.07,West,264,1.0,1.0,71,0.00,,,0.00,Wunderground v.1.15,2013-01-01 16:40:00,
2013-01-01 11:50:00,58.0,48.6,30.06,SW,234,1.0,1.0,71,0.00,,,0.00,Wunderground v.1.15,2013-01-01 16:50:00,
2013-01-01 12:00:00,57.8,48.5,30.05,West,269,0.0,0.0,71,0.00,,,0.00,Wunderground v.1.15,2013-01-01 17:00:00,
2013-01-01 12:10:00,-999.9,-99.9,30.04,SW,223,0.0,0.0,255,0.00,,,0.00,Wunderground v.1.15,2013-01-01 17:10:00,
2013-01-01 12:20:00,-999.9,-99.9,30.03,SSW,203,0.0,0.0,255,0.00,,,0.00,Wunderground v.1.15,2013-01-01 17:20:00,
2013-01-01 12:30:00,57.2,48.6,30.03,WSW,238,0.0,0.0,73,0.00,,,0.00,Wunderground v.1.15,2013-01-01 17:30:00,
2013-01-01 12:40:00,57.3,48.7,30.03,WSW,257,0.0,1.0,73,0.00,,,0.00,Wunderground v.1.15,2013-01-01 17:40:00,
2013-01-01 12:50:00,56.8,49.0,30.02,SSW,195,3.0,6.0,75,0.00,,,0.00,Wunderground v.1.15,2013-01-01 17:50:00,
2013-01-01 13:00:00,55.6,49.5,30.00,SW,223,4.0,4.0,80,0.00,,,0.00,Wunderground v.1.15,2013-01-01 18:00:00,
2013-01-01 13:10:00,55.6,49.5,30.00,SSW,211,2.0,2.0,80,0.00,,,0.00,Wunderground v.1.15,2013-01-01 18:10:00,
2013-01-01 13:20:00,55.6,49.5,29.99,SW,235,2.0,2.0,80,0.00,,,0.00,Wunderground v.1.15,2013-01-01 18:20:00,
2013-01-01 13:30:00,55.6,49.2,29.99,WSW,250,0.0,0.0,79,0.00,,,0.00,Wunderground v.1.15,2013-01-01 18:30:00,
2013-01-01 13:40:00,55.8,49.4,29.99,WSW,248,1.0,1.0,79,0.00,,,0.00,Wunderground v.1.15,2013-01-01 18:40:00,
2013-01-01 13:50:00,55.7,49.3,29.98,SW,230,1.0,1.0,79,0.00,,,0.00,Wunderground v.1.15,2013-01-01 18:50:00,
2013-01-01 14:00:00,55.7,49.6,29.98,WSW,240,1.0,1.0,80,0.00,,,0.00,Wunderground v.1.15,2013-01-01 19:00:00,
2013-01-01 14:10:00,55.5,49.8,29.98,WSW,246,1.0,2.0,81,0.00,,,0.00,Wunderground v.1.15,2013-01-01 19:10:00,
2013-01-01 14:20:00,55.4,50.0,29.97,WSW,256,2.0,2.0,82,0.00,,,0.00,Wunderground v.1.15,2013-01-01 19:20:00,
2013-01-01 14:30:00,55.5,50.4,29.98,WSW,239,1.0,1.0,83,0.00,,,0.00,Wunderground v.1.15,2013-01-01 19:30:00,
2013-01-01 14:40:00,55.5,50.7,29.98,WSW,238,1.0,1.0,84,0.00,,,0.00,Wunderground v.1.15,2013-01-01 19:40:00,
2013-01-01 14:50:00,55.6,51.2,29.98,West,259,1.0,1.0,85,0.00,,,0.00,Wunderground v.1.15,2013-01-01 19:50:00,
2013-01-01 15:00:00,55.7,51.3,29.97,WSW,250,2.0,2.0,85,0.00,,,0.00,Wunderground v.1.15,2013-01-01 20:00:00,
2013-01-01 15:10:00,55.8,51.7,29.97,WSW,242,2.0,2.0,86,0.00,,,0.00,Wunderground v.1.15,2013-01-01 20:10:00,
2013-01-01 15:20:00,55.9,51.8,29.97,WSW,254,2.0,2.0,86,0.00,,,0.00,Wunderground v.1.15,2013-01-01 20:20:00,
2013-01-01 15:30:00,55.3,51.8,29.97,WSW,244,2.0,4.0,88,0.00,,,0.00,Wunderground v.1.15,2013-01-01 20:30:00,
2013-01-01 15:40:00,54.9,51.7,29.97,WSW,254,2.0,4.0,89,0.00,,,0.00,Wunderground v.1.15,2013-01-01 20:40:00,
2013-01-01 15:50:00,54.9,51.7,29.94,SSW,199,2.0,2.0,89,0.00,,,0.00,Wunderground v.1.15,2013-01-01 20:50:00,
2013-01-01 16:00:00,54.9,52.0,29.94,WSW,238,2.0,2.0,90,0.00,,,0.00,Wunderground v.1.15,2013-01-01 21:00:00,
2013-01-01 16:10:00,55.1,52.2,29.94,West,264,2.0,2.0,90,0.00,,,0.00,Wunderground v.1.15,2013-01-01 21:10:00,
2013-01-01 16:20:00,55.5,52.6,29.94,WSW,252,2.0,2.0,90,0.00,,,0.00,Wunderground v.1.15,2013-01-01 21:20:00,
2013-01-01 16:30:00,55.7,52.8,29.94,SW,223,2.0,2.0,90,0.00,,,0.00,Wunderground v.1.15,2013-01-01 21:30:00,
2013-01-01 16:40:00,55.7,52.5,29.94,SW,223,2.0,2.0,89,0.00,,,0.00,Wunderground v.1.15,2013-01-01 21:40:00,
2013-01-01 16:50:00,55.7,52.5,29.94,WSW,252,2.0,2.0,89,0.00,,,0.00,Wunderground v.1.15,2013-01-01 21:50:00,
2013-01-01 17:00:00,55.6,52.4,29.97,NE,40,2.0,2.0,89,0.00,,,0.00,Wunderground v.1.15,2013-01-01 22:00:00,
2013-01-01 17:10:00,55.3,52.1,29.97,West,264,1.0,2.0,89,0.00,,,0.00,Wunderground v.1.15,2013-01-01 22:10:00,
2013-01-01 17:20:00,54.9,52.0,29.96,West,260,1.0,2.0,90,0.00,,,0.00,Wunderground v.1.15,2013-01-01 22:20:00,
2013-01-01 17:30:00,54.7,51.8,29.96,West,264,1.0,1.0,90,0.00,,,0.00,Wunderground v.1.15,2013-01-01 22:30:00,
2013-01-01 17:40:00,54.5,51.9,29.96,WSW,248,0.0,0.0,91,0.00,,,0.00,Wunderground v.1.15,2013-01-01 22:40:00,
2013-01-01 17:50:00,54.3,51.7,29.96,West,263,0.0,0.0,91,0.00,,,0.00,Wunderground v.1.15,2013-01-01 22:50:00,
2013-01-01 18:00:00,54.3,51.7,29.96,West,263,0.0,0.0,91,0.00,,,0.00,Wunderground v.1.15,2013-01-01 23:00:00,
2013-01-01 18:10:00,54.3,51.7,29.96,WSW,254,0.0,1.0,91,0.00,,,0.00,Wunderground v.1.15,2013-01-01 23:10:00,
2013-01-01 18:20:00,54.3,51.7,29.97,West,259,0.0,1.0,91,0.00,,,0.00,Wunderground v.1.15,2013-01-01 23:20:00,
2013-01-01 18:30:00,54.2,51.6,29.96,West,267,1.0,1.0,91,0.00,,,0.00,Wunderground v.1.15,2013-01-01 23:30:00,
2013-01-01 18:40:00,54.0,51.4,29.96,WSW,242,0.0,1.0,91,0.00,,,0.00,Wunderground v.1.15,2013-01-01 23:40:00,
2013-01-01 18:50:00,53.9,51.6,29.97,WNW,283,0.0,0.0,92,0.00,,,0.00,Wunderground v.1.15,2013-01-01 23:50:00,
2013-01-01 19:00:00,53.9,51.6,29.97,West,269,0.0,0.0,92,0.00,,,0.00,Wunderground v.1.15,2013-01-02 00:00:00,
2013-01-01 19:10:00,53.9,51.6,29.97,West,260,0.0,1.0,92,0.00,,,0.00,Wunderground v.1.15,2013-01-02 00:10:00,
2013-01-01 19:20:00,53.9,51.6,29.98,West,268,0.0,0.0,92,0.00,,,0.00,Wunderground v.1.15,2013-01-02 00:20:00,
2013-01-01 19:30:00,53.9,51.6,29.97,West,271,0.0,0.0,92,0.00,,,0.00,Wunderground v.1.15,2013-01-02 00:30:00,
2013-01-01 19:40:00,53.9,51.9,29.97,SW,222,0.0,1.0,93,0.00,,,0.00,Wunderground v.1.15,2013-01-02 00:40:00,
2013-01-01 19:50:00,53.9,51.9,29.97,West,261,0.0,0.0,93,0.00,,,0.00,Wunderground v.1.15,2013-01-02 00:50:00,
2013-01-01 20:00:00,54.0,52.0,29.97,West,269,0.0,0.0,93,0.00,,,0.00,Wunderground v.1.15,2013-01-02 01:00:00,
2013-01-01 20:10:00,54.1,52.1,29.97,West,279,1.0,2.0,93,0.00,,,0.00,Wunderground v.1.15,2013-01-02 01:10:00,
2013-01-01 20:20:00,54.2,52.2,29.97,WSW,257,1.0,1.0,93,0.00,,,0.00,Wunderground v.1.15,2013-01-02 01:20:00,
2013-01-01 20:30:00,54.4,52.4,29.96,West,265,1.0,1.0,93,0.00,,,0.00,Wunderground v.1.15,2013-01-02 01:30:00,
2013-01-01 20:40:00,54.5,52.5,29.96,WSW,246,1.0,1.0,93,0.00,,,0.00,Wunderground v.1.15,2013-01-02 01:40:00,
2013-01-01 20:50:00,54.8,52.8,29.97,West,259,1.0,1.0,93,0.00,,,0.00,Wunderground v.1.15,2013-01-02 01:50:00,
2013-01-01 21:00:00,55.0,53.0,29.97,West,264,1.0,2.0,93,0.00,,,0.00,Wunderground v.1.15,2013-01-02 02:00:00,
2013-01-01 21:10:00,55.1,53.1,29.97,WSW,253,1.0,2.0,93,0.00,,,0.00,Wunderground v.1.15,2013-01-02 02:10:00,
2013-01-01 21:20:00,55.0,52.7,29.97,WSW,257,1.0,1.0,92,0.00,,,0.00,Wunderground v.1.15,2013-01-02 02:20:00,
2013-01-01 21:30:00,54.9,52.6,29.97,WSW,254,1.0,1.0,92,0.00,,,0.00,Wunderground v.1.15,2013-01-02 02:30:00,
2013-01-01 21:40:00,54.9,52.9,29.97,West,263,1.0,1.0,93,0.00,,,0.00,Wunderground v.1.15,2013-01-02 02:40:00,
2013-01-01 21:50:00,54.8,52.8,29.97,West,273,1.0,1.0,93,0.00,,,0.00,Wunderground v.1.15,2013-01-02 02:50:00,
2013-01-01 22:00:00,54.9,52.9,29.97,WSW,257,1.0,1.0,93,0.00,,,0.00,Wunderground v.1.15,2013-01-02 03:00:00,
2013-01-01 22:10:00,54.9,52.9,29.97,SSW,199,1.0,1.0,93,0.00,,,0.00,Wunderground v.1.15,2013-01-02 03:10:00,
2013-01-01 22:20:00,55.0,53.0,29.97,WNW,283,1.0,1.0,93,0.00,,,0.00,Wunderground v.1.15,2013-01-02 03:20:00,
2013-01-01 22:30:00,55.0,53.0,29.96,West,272,1.0,1.0,93,0.00,,,0.00,Wunderground v.1.15,2013-01-02 03:30:00,
2013-01-01 22:40:00,55.0,53.0,29.96,West,259,0.0,0.0,93,0.00,,,0.00,Wunderground v.1.15,2013-01-02 03:40:00,
2013-01-01 22:50:00,55.0,53.0,29.96,West,277,0.0,1.0,93,0.00,,,0.00,Wunderground v.1.15,2013-01-02 03:50:00,
2013-01-01 23:00:00,55.0,53.0,29.96,WSW,240,0.0,0.0,93,0.00,,,0.00,Wunderground v.1.15,2013-01-02 04:00:00,
2013-01-01 23:10:00,55.0,53.0,29.96,West,265,0.0,0.0,93,0.00,,,0.00,Wunderground v.1.15,2013-01-02 04:10:00,
2013-01-01 23:20:00,55.0,53.0,29.95,West,271,0.0,1.0,93,0.00,,,0.00,Wunderground v.1.15,2013-01-02 04:20:00,
2013-01-01 23:30:00,55.1,53.1,29.94,West,272,0.0,0.0,93,0.00,,,0.00,Wunderground v.1.15,2013-01-02 04:30:00,
2013-01-01 23:40:00,55.2,53.2,29.94,WSW,257,0.0,0.0,93,0.00,,,0.00,Wunderground v.1.15,2013-01-02 04:40:00,
2013-01-01 23:50:00,55.3,53.3,29.94,NNE,13,2.0,6.0,93,0.00,,,0.00,Wunderground v.1.15,2013-01-02 04:50:00,